Flag for Argentina Weather past 2 weeks in Salta, Salta, Argentina

Now
50 °F

Clear.


Feels Like: 50 °F
Forecast: 50 / 74 °F
Wind: No wind

Location: Salta Aerodrome

Current Time: Sep 21, 2014 at 7:18:30 AM

Latest Report: Sep 21, 2014 at 6:00 AM


Visibility: 10 mi

Pressure: 30.21 "Hg

Humidity: 82%

Dew point: 45 °F

Location of SaltaLocation

Historic Weather in Salta — Graph

°F

Salta temperature yesterday

Maximum temperature yesterday: 79 °F (at 5:00 PM)
Minimum temperature yesterday: 61 °F (at 6:00 AM)
Average temperature yesterday: 68 °F

Past Weeks' High & Low Weather Summary

 TemperatureHumidityPressure
High95 °F (Sep 9, 4:00 PM)94% (Sep 8, 7:00 AM)30.39 "Hg (Sep 8, 7:00 AM)
Low39 °F (Sep 12, 6:00 AM)9% (Sep 9, 5:00 PM)29.62 "Hg (Sep 9, 4:00 PM)
Average62 °F54%30.06 "Hg
* Reported Sep 6 6:00 AM — Sep 21 6:00 AM, Salta, Weather by CustomWeather, © 2014

Note: Actual official high and low records may vary slightly from our data, if they occured in-between our weather recording intervals... More about our weather records

Advertising

Salta weather history for previous 24 hours

 ConditionsComfort  
Time TempWeatherWind HumidityBarometerVisibility
6:00 AM
Sep 21
50 °FClear.No wind82%30.21 "Hg10 mi
5:00 AM50 °FClear.No wind82%30.21 "Hg10 mi
4:00 AM54 °FClear.2 mph72%30.21 "Hg10 mi
3:00 AM55 °FClear.No wind72%30.24 "Hg10 mi
2:00 AM61 °FClear.5 mph59%30.24 "Hg10 mi
1:00 AM64 °FClear.5 mph52%30.27 "Hg10 mi
12:00 AM64 °FPassing clouds.3 mph52%30.27 "HgN/A
11:00 PM
Sep 20
64 °FPartly cloudy.2 mph52%30.30 "HgN/A
10:00 PM66 °FPassing clouds.5 mph94%30.27 "HgN/A
9:00 PM68 °FPassing clouds.8 mph43%30.24 "HgN/A
8:00 PM70 °FPassing clouds.10 mph40%30.21 "HgN/A
7:00 PM75 °FPassing clouds.9 mph27%30.18 "HgN/A
6:00 PM75 °FPartly sunny.10 mph27%30.15 "HgN/A
5:00 PM79 °FScattered clouds.8 mph26%30.15 "HgN/A
4:00 PM77 °FScattered clouds.7 mph28%30.15 "HgN/A
3:00 PM77 °FPartly sunny.8 mph28%30.18 "HgN/A
2:00 PM77 °FScattered clouds.3 mph28%30.21 "HgN/A
10:00 AM66 °FPassing clouds.7 mph46%30.30 "HgN/A
9:00 AM63 °FSunny.10 mph52%30.30 "Hg10 mi
8:00 AM61 °FSunny.6 mph55%30.27 "Hg10 mi
7:00 AM61 °FScattered clouds.6 mph52%30.24 "HgN/A
Weather by CustomWeather, © 2014

See weather overviewHow to use our weather pages